When you browse on this site, cookies collect data to enhance your experience and personalize the content and advertising you see.
Visit our Privacy Policy to learn more. By continuing to use the site, you agree to this use of cookies and data.
  • In France
  • List of Countries
  • For 7 days
  • Water Temperature
  • Weather Map
  • Weather Widgets
  • user-avatar
    Login

    Hourly Weather Cachungo

    Today, 31 May, Sunday

    Time Temperature Precipitation Wind Pressure Humidity
    00:00 +26°C° 0 mm 2 mps 757 mmHg 81%
    01:00 +26°C° 0 mm 2 mps 757 mmHg 78%
    02:00 +26°C° 0 mm 2 mps 756 mmHg 76%
    03:00 +26°C° 0 mm 2 mps 756 mmHg 76%
    04:00 +26°C° 0 mm 1 mps 756 mmHg 76%
    05:00 +26°C° 0 mm 1 mps 756 mmHg 76%
    06:00 +27°C° 0 mm 1 mps 757 mmHg 68%
    07:00 +29°C° 0 mm 1 mps 758 mmHg 61%
    08:00 +31°C° 0 mm 1 mps 758 mmHg 53%
    09:00 +34°C° 0 mm 1 mps 758 mmHg 47%
    10:00 +36°C° 0 mm 1 mps 757 mmHg 41%
    11:00 +40°C° 0 mm 2 mps 757 mmHg 35%
    12:00 +40°C° 0 mm 3 mps 757 mmHg 35%
    13:00 +41°C° 0 mm 4 mps 756 mmHg 35%
    14:00 +41°C° 0 mm 5 mps 755 mmHg 34%
    15:00 +37°C° 0.1 mm 5 mps 755 mmHg 41%
    16:00 +35°C° 0.1 mm 5 mps 756 mmHg 47%
    17:00 +33°C° 0.1 mm 5 mps 756 mmHg 54%
    18:00 +32°C° 0.2 mm 5 mps 756 mmHg 59%
    19:00 +29°C° 0.2 mm 4 mps 757 mmHg 64%
    20:00 +28°C° 0.2 mm 4 mps 758 mmHg 69%
    21:00 +27°C° 0 mm 3 mps 758 mmHg 70%
    22:00 +27°C° 0 mm 3 mps 758 mmHg 71%
    23:00 +27°C° 0 mm 2 mps 759 mmHg 73%

    Tomorrow, 1 June, Monday

    Time Temperature Precipitation Wind Pressure Humidity
    00:00 +26°C° 0 mm 2 mps 758 mmHg 74%
    01:00 +26°C° 0 mm 1 mps 758 mmHg 75%
    02:00 +25°C° 0 mm 1 mps 758 mmHg 76%
    03:00 +25°C° 0.7 mm 2 mps 758 mmHg 77%
    04:00 +25°C° 0.7 mm 3 mps 759 mmHg 78%
    05:00 +25°C° 0.7 mm 4 mps 759 mmHg 79%
    06:00 +25°C° 4.9 mm 3 mps 759 mmHg 82%
    07:00 +25°C° 4.9 mm 2 mps 760 mmHg 85%
    08:00 +25°C° 4.9 mm 1 mps 760 mmHg 88%
    09:00 +26°C° 0.3 mm 1 mps 760 mmHg 82%
    10:00 +27°C° 0.3 mm 1 mps 760 mmHg 76%
    11:00 +29°C° 0.3 mm 1 mps 760 mmHg 70%
    12:00 +30°C° 0 mm 1 mps 759 mmHg 66%
    13:00 +30°C° 0 mm 1 mps 759 mmHg 61%
    14:00 +31°C° 0 mm 1 mps 758 mmHg 57%
    15:00 +31°C° 0 mm 1 mps 758 mmHg 56%
    16:00 +32°C° 0 mm 2 mps 758 mmHg 55%
    17:00 +32°C° 0 mm 2 mps 757 mmHg 54%
    18:00 +31°C° 0 mm 2 mps 758 mmHg 60%
    19:00 +30°C° 0 mm 2 mps 758 mmHg 66%
    20:00 +29°C° 0 mm 1 mps 758 mmHg 71%
    21:00 +28°C° 0 mm 1 mps 758 mmHg 73%
    22:00 +28°C° 0 mm 1 mps 759 mmHg 74%
    23:00 +26°C° 0 mm 0 mps 759 mmHg 76%

    Day after tomorrow, 2 June, Tuesday

    Time Temperature Precipitation Wind Pressure Humidity
    00:00 +26°C° 0 mm 0 mps 758 mmHg 77%
    01:00 +25°C° 0 mm 0 mps 758 mmHg 78%
    02:00 +27°C° 0 mm 1 mps 758 mmHg 79%
    03:00 +27°C° 0 mm 1 mps 758 mmHg 80%
    04:00 +27°C° 0 mm 1 mps 758 mmHg 81%
    05:00 +26°C° 0 mm 1 mps 758 mmHg 82%
    06:00 +27°C° 0 mm 1 mps 758 mmHg 76%
    07:00 +28°C° 0 mm 2 mps 759 mmHg 71%
    08:00 +29°C° 0 mm 2 mps 759 mmHg 65%
    09:00 +31°C° 0 mm 2 mps 759 mmHg 57%
    10:00 +34°C° 0 mm 2 mps 759 mmHg 50%
    11:00 +37°C° 0 mm 2 mps 759 mmHg 42%
    12:00 +37°C° 0 mm 2 mps 758 mmHg 39%
    13:00 +38°C° 0 mm 2 mps 757 mmHg 36%
    14:00 +39°C° 0 mm 2 mps 757 mmHg 34%
    15:00 +37°C° 0 mm 3 mps 756 mmHg 40%
    16:00 +36°C° 0 mm 3 mps 756 mmHg 46%
    17:00 +34°C° 0 mm 4 mps 756 mmHg 52%
    18:00 +33°C° 0 mm 4 mps 756 mmHg 56%
    19:00 +32°C° 0 mm 4 mps 756 mmHg 60%
    20:00 +29°C° 0 mm 4 mps 757 mmHg 65%
    21:00 +29°C° 0 mm 4 mps 757 mmHg 64%
    22:00 +29°C° 0 mm 4 mps 758 mmHg 64%
    23:00 +29°C° 0 mm 4 mps 758 mmHg 64%

    3 June, Wednesday

    Time Temperature Precipitation Wind Pressure Humidity
    00:00 +28°C° 0 mm 4 mps 757 mmHg 64%
    01:00 +28°C° 0 mm 4 mps 757 mmHg 63%
    02:00 +28°C° 0 mm 4 mps 756 mmHg 63%
    03:00 +27°C° 0 mm 4 mps 757 mmHg 62%
    04:00 +27°C° 0 mm 3 mps 757 mmHg 62%
    05:00 +27°C° 0 mm 3 mps 757 mmHg 62%
    06:00 +28°C° 0 mm 3 mps 757 mmHg 57%
    07:00 +29°C° 0 mm 3 mps 757 mmHg 51%
    08:00 +30°C° 0 mm 3 mps 758 mmHg 46%
    09:00 +34°C° 0 mm 3 mps 758 mmHg 37%
    10:00 +36°C° 0 mm 3 mps 758 mmHg 29%
    11:00 +39°C° 0 mm 3 mps 758 mmHg 20%
    12:00 +40°C° 0 mm 3 mps 757 mmHg 20%
    13:00 +42°C° 0 mm 3 mps 756 mmHg 19%
    14:00 +43°C° 0 mm 3 mps 755 mmHg 18%
    15:00 +41°C° 0 mm 4 mps 755 mmHg 24%
    16:00 +38°C° 0 mm 4 mps 755 mmHg 30%
    17:00 +36°C° 0 mm 5 mps 755 mmHg 35%
    18:00 +34°C° 0 mm 5 mps 755 mmHg 40%
    19:00 +33°C° 0 mm 5 mps 756 mmHg 44%
    20:00 +30°C° 0 mm 4 mps 756 mmHg 48%
    21:00 +30°C° 0 mm 4 mps 757 mmHg 50%
    22:00 +29°C° 0 mm 4 mps 757 mmHg 52%
    23:00 +28°C° 0 mm 4 mps 757 mmHg 53%

    4 June, Thursday

    Time Temperature Precipitation Wind Pressure Humidity
    00:00 +28°C° 0 mm 5 mps 757 mmHg 55%
    01:00 +28°C° 0 mm 5 mps 756 mmHg 57%
    02:00 +27°C° 0 mm 5 mps 756 mmHg 58%
    03:00 +27°C° 0 mm 4 mps 756 mmHg 60%
    04:00 +26°C° 0 mm 4 mps 756 mmHg 62%
    05:00 +26°C° 0 mm 3 mps 756 mmHg 64%
    06:00 +27°C° 0 mm 3 mps 757 mmHg 60%
    07:00 +28°C° 0 mm 4 mps 757 mmHg 55%
    08:00 +29°C° 0 mm 4 mps 758 mmHg 51%
    09:00 +33°C° 0 mm 4 mps 758 mmHg 44%
    10:00 +35°C° 0 mm 4 mps 758 mmHg 36%
    11:00 +38°C° 0 mm 3 mps 757 mmHg 29%
    12:00 +39°C° 0 mm 3 mps 757 mmHg 27%
    13:00 +42°C° 0 mm 3 mps 756 mmHg 24%
    14:00 +43°C° 0 mm 3 mps 755 mmHg 21%
    15:00 +41°C° 0 mm 4 mps 755 mmHg 27%
    16:00 +39°C° 0 mm 5 mps 755 mmHg 33%
    17:00 +37°C° 0 mm 5 mps 755 mmHg 39%
    18:00 +35°C° 0 mm 5 mps 755 mmHg 45%
    19:00 +33°C° 0 mm 5 mps 756 mmHg 51%
    20:00 +30°C° 0 mm 5 mps 756 mmHg 57%
    21:00 +29°C° 0 mm 5 mps 756 mmHg 59%
    22:00 +29°C° 0 mm 5 mps 757 mmHg 60%
    23:00 +28°C° 0 mm 4 mps 757 mmHg 62%

    5 June, Friday

    Time Temperature Precipitation Wind Pressure Humidity
    00:00 +28°C° 0 mm 4 mps 757 mmHg 63%
    01:00 +28°C° 0 mm 4 mps 756 mmHg 65%
    02:00 +27°C° 0 mm 4 mps 756 mmHg 66%
    03:00 +27°C° 0 mm 4 mps 756 mmHg 67%
    04:00 +27°C° 0 mm 3 mps 756 mmHg 69%
    05:00 +26°C° 0 mm 3 mps 756 mmHg 70%
    06:00 +27°C° 0 mm 3 mps 756 mmHg 64%
    07:00 +29°C° 0 mm 3 mps 757 mmHg 59%
    08:00 +30°C° 0 mm 3 mps 757 mmHg 54%
    09:00 +33°C° 0 mm 3 mps 757 mmHg 46%
    10:00 +36°C° 0 mm 3 mps 757 mmHg 38%
    11:00 +38°C° 0 mm 3 mps 757 mmHg 29%
    12:00 +39°C° 0 mm 3 mps 756 mmHg 28%
    13:00 +42°C° 0 mm 3 mps 756 mmHg 26%
    14:00 +43°C° 0 mm 3 mps 755 mmHg 24%
    15:00 +40°C° 0 mm 4 mps 755 mmHg 32%
    16:00 +37°C° 0 mm 5 mps 755 mmHg 41%
    17:00 +34°C° 0 mm 6 mps 754 mmHg 50%
    18:00 +33°C° 0 mm 5 mps 755 mmHg 54%
    19:00 +30°C° 0 mm 5 mps 755 mmHg 58%
    20:00 +29°C° 0 mm 5 mps 756 mmHg 61%
    21:00 +29°C° 0 mm 4 mps 756 mmHg 62%
    22:00 +29°C° 0 mm 4 mps 757 mmHg 62%
    23:00 +28°C° 0 mm 3 mps 757 mmHg 62%
    Show more